This is the latest recevied weather packets stored in our database for station/object XE2B-20. If no packets are shown the sender has not sent any weather packets the latest 10 day(s).
| Time | Temp. | Humidity | Pressure | Rain* | Wind** | Luminosity | Snow |
|---|---|---|---|---|---|---|---|
| 1777663760 | 32.78° C | 14% | 802.3 hPa | - | - | - | - |
| 1777662263 | 32.78° C | 15% | 802.4 hPa | - | - | - | - |
| 1777660764 | 32.78° C | 15% | 802.9 hPa | - | - | - | - |
| 1777659265 | 32.22° C | 14% | 803.1 hPa | - | - | - | - |
| 1777657765 | 32.22° C | 15% | 803.4 hPa | - | - | - | - |
| 1777656267 | 31.67° C | 15% | 803.7 hPa | - | - | - | - |
| 1777654767 | 31.67° C | 15% | 803.8 hPa | - | - | - | - |
| 1777653269 | 31.11° C | 16% | 804 hPa | - | - | - | - |
| 1777651773 | 31.11° C | 16% | 804.1 hPa | - | - | - | - |
| 1777650276 | 32.22° C | 14% | 804.1 hPa | - | - | - | - |
| 1777648776 | 30° C | 15% | 804.1 hPa | - | - | - | - |
| 1777647278 | 27.78° C | 16% | 804.1 hPa | - | - | - | - |
| 1777645789 | 26.11° C | 17% | 804 hPa | - | - | - | - |
| 1777644281 | 25° C | 17% | 803.9 hPa | - | - | - | - |
| 1777642782 | 23.89° C | 17% | 803.8 hPa | - | - | - | - |
| 1777641283 | 21.11° C | 18% | 803.7 hPa | - | - | - | - |
| 1777639782 | 17.22° C | 21% | 803.5 hPa | - | - | - | - |
| 1777638284 | 16.11° C | 22% | 802.9 hPa | - | - | - | - |
| 1777636786 | 17.78° C | 21% | 802.8 hPa | - | - | - | - |
| 1777635288 | 20.56° C | 19% | 802.4 hPa | - | - | - | - |
| 1777633799 | 21.11° C | 19% | 802.3 hPa | - | - | - | - |
| 1777632294 | 21.11° C | 19% | 801.9 hPa | - | - | - | - |
| 1777630796 | 21.11° C | 19% | 802 hPa | - | - | - | - |
| 1777629300 | 21.67° C | 19% | 802 hPa | - | - | - | - |
| 1777627803 | 21.67° C | 19% | 801.8 hPa | - | - | - | - |
* Rain since midnight (hover to see other rain measurements)
** Current wind speed in m/s (hover to see current wind gust speed)